Location: Hermaringen
(48.5952°N, 10.2585°E)
Time: 05:42:05
(UTC+00:00)

Transit 2A - Pass Details

Date: 17 February 2026
Orbit: 590 x 954 km, 66.7° (Epoch: 14 March)

Event Time Altitude Azimuth Distance (km) Brightness Sun altitude
Rises 19:04:24 0° 324° (NW) 3,618 10.1 -23.9°
Reaches altitude 10° 19:07:18 10° 334° (NNW) 2,644 9.2 -24.3°
Enters shadow 19:12:38 33° 33° (NNE) 1,465 7.2 -25.2°
